Weather History for Douglas Bisbee, AZ

Change the Weather History Date:

Friday, September 27, 2013

  Actual Average Record
Temperature  
Mean Temperature 68 °F 71 °F  
Max Temperature 79 °F 87 °F 97 °F (2005)
Min Temperature 56 °F 55 °F 43 °F (1955)
Degree Days  
Heating Degree Days 0 0  
Month to date heating degree days 0 0  
Since 1 July heating degree days 0 0  
Cooling Degree Days 3 6  
Month to date cooling degree days 271 264  
Year to date cooling degree days 1811 1734  
Growing Degree Days 16 (Base 50)    
Moisture  
Dew Point 47 °F    
Average Humidity 51    
Maximum Humidity 73    
Minimum Humidity 28    
Precipitation  
Precipitation 0.00 in 0.05 in 0.23 in (1983)
Month to date precipitation 2.16 1.42  
Year to date precipitation 17.11 10.43  
Snow  
Snow 0.00 in 0.00 in 0.00 in ()
Month to date snowfall 0.0 0.0  
Since 1 July snowfall 0.0 0.0  
Snow Depth 0.00 in    
Sea Level Pressure  
Sea Level Pressure 29.78 in    
Wind  
Wind Speed 9 mph (WSW)    
Max Wind Speed 21 mph    
Max Gust Speed 28 mph    
Visibility 10 miles    
Events      
T = Trace of Precipitation, MM = Missing Value Source: NWS Daily Summary

Daily Weather History Graph

Daily Weather History Graph

Search for Another Location

Airport:

Trip Planner

Search our weather history database for the weather conditions in past years. The results will help you decide how hot, cold, wet, or windy it might be!

Date:

Astronomy

Sep. 27, 2013 Rise Set
Actual Time 6:09 AM MST 6:08 PM MST
Civil Twilight 5:45 AM MST 6:32 PM MST
Nautical Twilight 5:17 AM MST 7:00 PM MST
Astronomical Twilight 4:49 AM MST 7:28 PM MST
Moon No Moon Rise 1:29 PM MST (9/27)
Length of Visible Light 12h 46m
Length of Day
11h 58m
Last Quarter, 44% of the Moon is Illuminated
Sep 27
Last Quarter
Oct 4
New
Oct 11
First Quarter
Oct 18
Full
Oct 26
Last Quarter

Hourly Weather History & Observations

Time (MST) Temp. Dew Point Humidity Pressure Visibility Wind Dir Wind Speed Gust Speed Precip Events Conditions
12:56 AM 66.9 °F 57.0 °F 70% 29.69 in 10.0 mi South 9.2 mph - N/A   Mostly Cloudy
1:56 AM 66.9 °F 57.0 °F 70% 29.69 in 10.0 mi South 6.9 mph - N/A   Mostly Cloudy
2:56 AM 64.0 °F 55.0 °F 73% 29.69 in 10.0 mi SE 6.9 mph - N/A   Scattered Clouds
3:56 AM 63.0 °F 52.0 °F 67% 29.69 in 10.0 mi SSE 8.1 mph - N/A   Clear
4:56 AM 62.1 °F 50.0 °F 65% 29.71 in 10.0 mi SSE 6.9 mph - N/A   Mostly Cloudy
5:56 AM 62.1 °F 48.9 °F 62% 29.73 in 10.0 mi South 4.6 mph - N/A   Mostly Cloudy
6:56 AM 61.0 °F 50.0 °F 67% 29.77 in 10.0 mi SW 9.2 mph - N/A   Partly Cloudy
7:56 AM 68.0 °F 50.0 °F 52% 29.78 in 10.0 mi WSW 9.2 mph - N/A   Clear
8:56 AM 69.1 °F 50.0 °F 51% 29.79 in 10.0 mi SW 9.2 mph - N/A   Scattered Clouds
9:56 AM 71.1 °F 46.9 °F 42% 29.79 in 10.0 mi WSW 10.4 mph 18.4 mph N/A   Mostly Cloudy
10:56 AM 73.0 °F 45.0 °F 37% 29.79 in 10.0 mi WSW 11.5 mph - N/A   Mostly Cloudy
11:56 AM 73.9 °F 45.0 °F 35% 29.78 in 10.0 mi WSW 13.8 mph 21.9 mph N/A   Mostly Cloudy
12:56 PM 75.9 °F 44.1 °F 32% 29.76 in 10.0 mi WSW 13.8 mph 23.0 mph N/A   Scattered Clouds
1:56 PM 78.1 °F 44.1 °F 30% 29.74 in 10.0 mi West 8.1 mph 23.0 mph N/A   Scattered Clouds
2:56 PM 78.1 °F 43.0 °F 29% 29.74 in 10.0 mi West 11.5 mph - N/A   Partly Cloudy
3:56 PM 77.0 °F 42.1 °F 29% 29.75 in 10.0 mi WSW 10.4 mph 21.9 mph N/A   Clear
4:56 PM 75.9 °F 41.0 °F 29% 29.77 in 10.0 mi West 11.5 mph - N/A   Clear
5:56 PM 71.1 °F 44.1 °F 38% 29.80 in 10.0 mi NW 11.5 mph - N/A   Partly Cloudy
6:56 PM 66.0 °F 45.0 °F 47% 29.83 in 10.0 mi NNW 10.4 mph - N/A   Partly Cloudy
7:56 PM 63.0 °F 46.0 °F 54% 29.84 in 10.0 mi NNW 8.1 mph - N/A   Clear
8:56 PM 63.0 °F 46.0 °F 54% 29.87 in 10.0 mi North 6.9 mph - N/A   Mostly Cloudy
9:56 PM 60.1 °F 45.0 °F 57% 29.89 in 10.0 mi NNW 9.2 mph - N/A   Partly Cloudy
10:56 PM 55.9 °F 41.0 °F 57% 29.90 in 10.0 mi NW 11.5 mph - N/A   Partly Cloudy
11:56 PM 57.0 °F 35.1 °F 44% 29.90 in 10.0 mi NNW 8.1 mph - N/A   Scattered Clouds